Date String (YYYY-MM-DD hh:mm:ss) UTC,Instrument flags,absolute air pressure of the measurement (hPa),sample flow rate (lpm),inlet stack bypass flow (lpm),air temperature of the measurement (°C),ambient temperature measured by the external sensor (°C),aerosol sample conditioner tube jacket temperature (°C),OPC LED temperature (°C),internal box temperature (°C),relative humidity of the measurement (%),span deviation,mass concentration of particles derived from Lorenz-Mie calculation of OPC scattering (μg/m³),mass concentration of particles derived from Lorenz-Mie calculation of OPC scattering (μg/m³),mass concentration of particles derived from Lorenz-Mie calculation of OPC scattering (μg/m³)
DateTimeUTC,F1_M11,P_M11,Q1_M11,Q2_M11,T1_M11,T2_M11,T3_M11,T4_M11,T5_M11,U1_M11,ZSPAN_M11,X0_M11,X2_M11,X1_M11
2023-06-18 14:00:00,SystemResetWarning,0827.2,5.00,000.00,030.2,028.6,000.0,038.8,031.7,18.2,0000.0,0006.49,0003.87,0003.57
2023-06-18 14:01:00,SystemResetWarning,0827.2,5.00,000.00,030.3,028.6,000.0,038.8,031.7,18.8,0000.0,0006.63,0003.88,0003.56
2023-06-18 14:02:00,SystemResetWarning,0827.3,5.00,000.00,030.3,028.7,000.0,038.8,031.7,17.8,0000.0,0006.80,0003.89,0003.56
2023-06-18 14:03:00,SystemResetWarning,0827.2,5.00,000.00,030.3,028.7,000.0,038.9,031.7,17.3,0000.0,0006.85,0003.90,0003.55
2023-06-18 14:04:00,SystemResetWarning,0827.3,5.00,000.00,030.3,028.8,000.0,038.9,031.8,17.0,0000.0,0006.69,0003.92,0003.55
2023-06-18 14:05:00,SystemResetWarning,0827.2,5.00,000.00,030.3,028.8,000.0,038.9,031.8,16.7,0000.0,0007.18,0003.91,0003.55
2023-06-18 14:06:00,SystemResetWarning,0827.2,5.01,000.00,030.4,028.8,000.0,038.9,031.8,16.5,0000.0,0007.39,0003.93,0003.55
2023-06-18 14:07:00,SystemResetWarning,0827.2,4.99,000.00,030.4,028.2,000.0,038.9,031.9,17.8,0000.0,0007.38,0003.94,0003.56
2023-06-18 14:08:00,SystemResetWarning,0827.1,4.98,000.00,030.4,026.1,000.0,038.8,031.8,20.7,0000.0,0007.43,0003.96,0003.57
2023-06-18 14:09:00,SystemResetWarning,0827.1,5.01,000.00,030.3,025.3,000.0,038.8,031.7,21.3,0000.0,0007.42,0003.97,0003.59
2023-06-18 14:10:00,SystemResetWarning,0827.1,5.01,000.00,030.3,025.7,000.0,038.7,031.4,21.7,0000.0,0007.46,0003.99,0003.61
2023-06-18 14:11:00,SystemResetWarning,0827.2,5.00,000.00,030.2,026.0,000.0,038.7,031.4,21.8,0000.0,0007.47,0004.03,0003.63
2023-06-18 14:12:00,SystemResetWarning,0827.1,5.00,000.00,030.1,026.4,000.0,038.7,031.4,21.6,0000.0,0007.69,0004.03,0003.64
2023-06-18 14:13:00,SystemResetWarning,0827.1,5.00,000.00,030.1,026.8,000.0,038.7,031.4,20.3,0000.0,0007.96,0004.00,0003.65
2023-06-18 14:14:00,SystemResetWarning,0827.1,4.99,000.00,030.1,027.1,000.0,038.7,031.4,20.3,0000.0,0008.33,0003.99,0003.66
2023-06-18 14:15:00,SystemResetWarning,0827.1,4.99,000.00,030.1,027.4,000.0,038.7,031.4,19.6,0000.0,0008.51,0003.97,0003.67
2023-06-18 14:16:00,SystemResetWarning,0827.1,5.01,000.00,030.0,027.6,000.0,038.7,031.4,19.5,0000.0,0008.46,0003.97,0003.68
2023-06-18 14:17:00,SystemResetWarning,0827.1,5.01,000.00,030.0,027.8,000.0,038.7,031.4,19.5,0000.0,0008.59,0004.02,0003.70
2023-06-18 14:18:00,SystemResetWarning,0827.1,5.00,000.00,030.1,028.0,000.0,038.7,031.5,19.2,0000.0,0008.87,0004.04,0003.71
2023-06-18 14:19:00,SystemResetWarning,0827.1,5.00,000.00,030.1,028.1,000.0,038.7,031.5,18.2,0000.0,0009.05,0004.06,0003.72
2023-06-18 14:20:00,SystemResetWarning,0827.0,5.00,000.00,030.1,028.2,000.0,038.7,031.5,18.1,0000.0,0008.95,0004.06,0003.72
2023-06-18 14:21:00,SystemResetWarning,0827.1,5.00,000.00,030.1,028.3,000.0,038.7,031.5,20.4,0000.0,0008.97,0004.06,0003.72
2023-06-18 14:22:00,SystemResetWarning,0827.1,5.00,000.00,030.1,028.4,000.0,038.7,031.6,22.9,0000.0,0009.27,0004.06,0003.72
2023-06-18 14:23:00,SystemResetWarning,0827.0,5.00,000.00,030.1,028.5,000.0,038.7,031.7,23.1,0000.0,0009.60,0004.09,0003.73
2023-06-18 14:24:00,SystemResetWarning,0827.1,5.00,000.00,030.1,028.5,000.0,038.7,031.6,23.6,0000.0,0009.90,0004.12,0003.73
2023-06-18 14:25:00,SystemResetWarning,0827.0,5.00,000.00,030.1,028.6,000.0,038.7,031.6,23.8,0000.0,0009.75,0004.14,0003.74
2023-06-18 14:26:00,SystemResetWarning,0827.0,4.99,000.00,030.2,028.3,000.0,038.7,031.7,21.8,0000.0,0009.46,0004.16,0003.74
2023-06-18 14:27:00,SystemResetWarning,0826.9,5.00,000.00,030.2,026.3,000.0,038.6,031.6,21.0,0000.0,0009.45,0004.19,0003.75
2023-06-18 14:28:00,SystemResetWarning,0826.9,5.00,000.00,030.1,025.0,000.0,038.6,031.5,22.2,0000.0,0009.29,0004.18,0003.74
2023-06-18 14:29:00,SystemResetWarning,0826.9,5.01,000.00,030.1,025.3,000.0,038.5,031.3,23.2,0000.0,0009.11,0004.20,0003.74
2023-06-18 14:30:00,SystemResetWarning,0826.9,5.00,000.00,029.9,025.7,000.0,038.5,031.2,23.7,0000.0,0009.00,0004.21,0003.74
2023-06-18 14:31:00,SystemResetWarning,0827.0,5.00,000.00,029.9,026.1,000.0,038.5,031.1,22.8,0000.0,0009.49,0004.23,0003.75
2023-06-18 14:32:00,SystemResetWarning,0827.0,5.00,000.00,029.9,026.5,000.0,038.5,031.1,23.0,0000.0,0009.96,0004.23,0003.76
2023-06-18 14:33:00,SystemResetWarning,0826.9,4.99,000.00,029.8,026.9,000.0,038.5,031.2,21.0,0000.0,0009.63,0004.22,0003.76
2023-06-18 14:34:00,SystemResetWarning,0827.0,4.99,000.00,029.8,027.2,000.0,038.5,031.2,20.9,0000.0,0009.34,0004.21,0003.75
2023-06-18 14:35:00,SystemResetWarning,0826.9,5.00,000.00,029.8,027.4,000.0,038.5,031.3,21.5,0000.0,0008.46,0004.21,0003.75
2023-06-18 14:36:00,SystemResetWarning,0826.9,5.02,000.00,029.8,027.6,000.0,038.5,031.3,22.1,0000.0,0008.49,0004.22,0003.76
2023-06-18 14:37:00,SystemResetWarning,0826.9,4.99,000.00,029.9,027.8,000.0,038.5,031.3,21.8,0000.0,0008.74,0004.23,0003.76
2023-06-18 14:38:00,SystemResetWarning,0826.9,4.99,000.00,029.9,028.0,000.0,038.5,031.4,22.5,0000.0,0008.63,0004.21,0003.76
2023-06-18 14:39:00,SystemResetWarning,0826.9,5.00,000.00,029.9,028.1,000.0,038.5,031.4,24.1,0000.0,0008.45,0004.19,0003.76
2023-06-18 14:40:00,SystemResetWarning,0826.9,5.00,000.00,029.9,028.2,000.0,038.5,031.4,24.0,0000.0,0008.38,0004.18,0003.77
2023-06-18 14:41:00,SystemResetWarning,0826.9,5.01,000.00,029.9,028.3,000.0,038.5,031.4,24.0,0000.0,0008.98,0004.19,0003.78
2023-06-18 14:42:00,SystemResetWarning,0826.9,5.01,000.00,029.9,028.4,000.0,038.5,031.5,23.2,0000.0,0008.68,0004.18,0003.77
2023-06-18 14:43:00,SystemResetWarning,0826.9,5.00,000.00,030.0,028.4,000.0,038.5,031.5,23.9,0000.0,0008.46,0004.17,0003.78
2023-06-18 14:44:00,SystemResetWarning,0826.9,5.00,000.00,030.0,028.5,000.0,038.5,031.5,24.0,0000.0,0008.73,0004.17,0003.78
2023-06-18 14:45:00,SystemResetWarning,0826.9,5.00,000.00,030.0,028.5,000.0,038.5,031.5,24.7,0000.0,0008.63,0004.14,0003.78
2023-06-18 14:46:00,SystemResetWarning,0826.9,4.98,000.00,030.0,027.7,000.0,038.5,031.6,23.7,0000.0,0008.84,0004.11,0003.78
2023-06-18 14:47:00,SystemResetWarning,0826.9,5.00,000.00,030.0,025.5,000.0,038.4,031.5,24.0,0000.0,0008.84,0004.09,0003.78
2023-06-18 14:48:00,SystemResetWarning,0826.8,5.00,000.00,030.0,024.9,000.0,038.4,031.4,23.2,0000.0,0008.57,0004.10,0003.78
2023-06-18 14:49:00,SystemResetWarning,0826.8,5.01,000.00,029.9,025.3,000.0,038.4,031.2,23.5,0000.0,0008.63,0004.10,0003.78
2023-06-18 14:50:00,SystemResetWarning,0826.8,5.00,000.00,029.8,025.7,000.0,038.4,031.0,22.8,0000.0,0009.16,0004.09,0003.77
2023-06-18 14:51:00,SystemResetWarning,0826.8,4.99,000.00,029.7,026.1,000.0,038.4,031.1,22.9,0000.0,0009.64,0004.06,0003.76
2023-06-18 14:52:00,SystemResetWarning,0826.8,5.01,000.00,029.7,026.5,000.0,038.3,031.1,24.1,0000.0,0009.44,0004.03,0003.75
2023-06-18 14:53:00,SystemResetWarning,0826.8,5.01,000.00,029.7,026.9,000.0,038.3,031.1,20.5,0000.0,0009.42,0004.03,0003.76
2023-06-18 14:54:00,SystemResetWarning,0826.8,5.00,000.00,029.7,027.2,000.0,038.3,031.1,18.9,0000.0,0009.01,0004.04,0003.76
2023-06-18 14:55:00,SystemResetWarning,0826.8,4.99,000.00,029.7,027.4,000.0,038.3,031.2,18.8,0000.0,0008.81,0004.06,0003.75
2023-06-18 14:56:00,SystemResetWarning,0826.8,4.99,000.00,029.7,027.6,000.0,038.3,031.2,18.5,0000.0,0008.90,0004.09,0003.76
2023-06-18 14:57:00,SystemResetWarning,0826.7,4.99,000.00,029.8,027.8,000.0,038.3,031.2,18.8,0000.0,0008.58,0004.10,0003.76
2023-06-18 14:58:00,SystemResetWarning,0826.6,5.00,000.00,029.8,027.9,000.0,038.3,031.3,19.5,0000.0,0008.53,0004.13,0003.75
2023-06-18 14:59:00,SystemResetWarning,0826.6,5.00,000.00,029.8,028.1,000.0,038.3,031.3,19.4,0000.0,0008.59,0004.13,0003.75
